Location: Chavannes
(47.1090°N, 0.2226°W)
Time: 15:09:38
(UTC+00:00)

Cosmos 2263 Rocket - Pass Details

Date: 16 October 2021
Orbit: 825 x 847 km, 71.0° (Epoch: 07 December)

Event Time Altitude Azimuth Distance (km) Brightness Sun altitude
Rises 19:01:21 0° 332° (NNW) 3,376 5.8 -19.4°
Reaches altitude 10° 19:03:47 10° 333° (NNW) 2,437 5.0 -19.9°
Maximum altitude 19:09:23 90° 282° (WNW) 832 2.1 -20.8°
Enters shadow 19:12:42 25° 155° (SSE) 1,593 3.3 -21.4°
